Voltar ao catálogo

STARLINK-5155

AtivoComunicaçõesVLEO
NORAD 54170·PAYLOAD·🇺🇸 United States

Lançado Oct 28, 2022 de Vandenberg Space Force Base

Loading…

Próximas Passagens (próximas 24 horas)

TLE

AtualizadoSource: CelesTrak SupGP

Época: Sep 14, 2026, 13:56 UTC

1 54170C 22141P   26257.58104167 -.00040947  00000+0 -12103-2 0  2572
2 54170  53.1582 221.3626 0001297  90.2603 344.3611 15.34399330    17

Acompanhe STARLINK-5155 em tempo real com AllMySat

Download on the App Store